Time,TemperatureF,DewpointF,PressureIn,WindDirection,WindDirectionDegrees,WindSpeedMPH,WindSpeedGustMPH,Humidity,HourlyPrecipIn,Conditions,Clouds,dailyrainin,SoftwareType,DateUTC
2013-09-15 00:00:00,76.8,76.2,29.80,WNW,292,0.0,-999.0,98,-99.99,,,0.00,Acu-Link.com,2013-09-15 04:00:00,
2013-09-15 00:15:00,77.2,76.6,29.81,NE,45,0.0,-999.0,98,-99.99,,,0.00,Acu-Link.com,2013-09-15 04:15:00,
2013-09-15 00:30:00,77.7,77.1,29.81,WNW,292,0.0,-999.0,98,-99.99,,,0.00,Acu-Link.com,2013-09-15 04:30:00,
2013-09-15 00:46:00,77.5,76.9,29.82,WNW,292,0.0,-999.0,98,-99.99,,,0.00,Acu-Link.com,2013-09-15 04:46:00,
2013-09-15 01:01:00,78.4,77.8,29.81,West,270,2.2,-999.0,98,-99.99,,,0.00,Acu-Link.com,2013-09-15 05:01:00,
2013-09-15 01:16:00,78.3,77.7,29.82,SSW,202,0.0,-999.0,98,-99.99,,,0.00,Acu-Link.com,2013-09-15 05:16:00,
2013-09-15 01:31:00,78.8,78.2,29.82,SSW,202,3.7,-999.0,98,-99.99,,,0.00,Acu-Link.com,2013-09-15 05:31:00,
2013-09-15 01:46:00,79.2,78.6,29.82,South,180,4.2,-999.0,98,-99.99,,,0.00,Acu-Link.com,2013-09-15 05:46:00,
2013-09-15 02:02:00,78.4,77.8,29.81,SSE,157,3.7,-999.0,98,-99.99,,,0.00,Acu-Link.com,2013-09-15 06:02:00,
2013-09-15 02:17:00,78.4,77.8,29.81,SE,135,2.7,-999.0,98,-99.99,,,0.00,Acu-Link.com,2013-09-15 06:17:00,
2013-09-15 02:32:00,78.1,77.5,29.80,SE,135,3.2,-999.0,98,-99.99,,,0.00,Acu-Link.com,2013-09-15 06:32:00,
2013-09-15 02:47:00,78.8,78.2,29.81,SSW,202,3.7,-999.0,98,-99.99,,,0.00,Acu-Link.com,2013-09-15 06:47:00,
2013-09-15 03:03:00,78.8,78.2,29.80,SSW,202,4.2,-999.0,98,-99.99,,,0.00,Acu-Link.com,2013-09-15 07:03:00,
2013-09-15 03:18:00,78.8,78.2,29.80,South,180,3.7,-999.0,98,-99.99,,,0.00,Acu-Link.com,2013-09-15 07:18:00,
2013-09-15 03:33:00,79.2,78.6,29.80,South,180,4.2,-999.0,98,-99.99,,,0.00,Acu-Link.com,2013-09-15 07:33:00,
2013-09-15 03:48:00,79.5,78.9,29.80,SSW,202,4.7,-999.0,98,-99.99,,,0.00,Acu-Link.com,2013-09-15 07:48:00,
2013-09-15 04:04:00,79.3,78.7,29.80,SSW,202,5.3,-999.0,98,-99.99,,,0.00,Acu-Link.com,2013-09-15 08:04:00,
2013-09-15 04:19:00,79.3,78.7,29.81,SSW,202,4.2,-999.0,98,-99.99,,,0.00,Acu-Link.com,2013-09-15 08:19:00,
2013-09-15 04:34:00,79.2,78.6,29.81,South,180,4.7,-999.0,98,-99.99,,,0.00,Acu-Link.com,2013-09-15 08:34:00,
2013-09-15 04:50:00,79.2,78.6,29.81,South,180,4.2,-999.0,98,-99.99,,,0.00,Acu-Link.com,2013-09-15 08:50:00,
2013-09-15 05:05:00,78.8,78.2,29.81,SSW,202,2.7,-999.0,98,-99.99,,,0.00,Acu-Link.com,2013-09-15 09:05:00,
2013-09-15 05:20:00,78.6,78.0,29.81,SSW,202,2.7,-999.0,98,-99.99,,,0.00,Acu-Link.com,2013-09-15 09:20:00,
2013-09-15 05:35:00,78.6,78.0,29.80,SSW,202,3.2,-999.0,98,-99.99,,,0.00,Acu-Link.com,2013-09-15 09:35:00,
2013-09-15 05:50:00,78.8,78.2,29.80,South,180,3.2,-999.0,98,-99.99,,,0.00,Acu-Link.com,2013-09-15 09:50:00,
2013-09-15 06:06:00,79.0,78.4,29.81,South,180,3.2,-999.0,98,-99.99,,,0.00,Acu-Link.com,2013-09-15 10:06:00,
2013-09-15 06:21:00,78.8,78.2,29.81,South,180,3.7,-999.0,98,-99.99,,,0.00,Acu-Link.com,2013-09-15 10:21:00,
2013-09-15 06:36:00,79.0,78.4,29.81,SSW,202,4.2,-999.0,98,-99.99,,,0.00,Acu-Link.com,2013-09-15 10:36:00,
2013-09-15 06:51:00,78.8,78.2,29.80,SW,225,2.2,-999.0,98,-99.99,,,0.00,Acu-Link.com,2013-09-15 10:51:00,
2013-09-15 07:07:00,78.4,77.8,29.81,WNW,292,1.7,-999.0,98,-99.99,,,0.00,Acu-Link.com,2013-09-15 11:07:00,
2013-09-15 07:22:00,78.3,77.7,29.81,SE,135,3.2,-999.0,98,-99.99,,,0.00,Acu-Link.com,2013-09-15 11:22:00,
2013-09-15 07:37:00,78.6,78.0,29.81,ESE,112,4.2,-999.0,98,-99.99,,,0.00,Acu-Link.com,2013-09-15 11:37:00,
2013-09-15 07:52:00,78.4,77.8,29.83,SE,135,5.3,-999.0,98,-99.99,,,0.00,Acu-Link.com,2013-09-15 11:52:00,
2013-09-15 08:07:00,77.9,77.3,29.83,SE,135,5.3,-999.0,98,-99.99,,,0.00,Acu-Link.com,2013-09-15 12:07:00,
2013-09-15 08:22:00,78.6,78.0,29.84,SSE,157,4.7,-999.0,98,-99.99,,,0.00,Acu-Link.com,2013-09-15 12:22:00,
2013-09-15 08:37:00,79.5,78.9,29.84,South,180,5.8,-999.0,98,-99.99,,,0.00,Acu-Link.com,2013-09-15 12:37:00,
2013-09-15 08:52:00,80.4,79.8,29.85,SSW,202,4.7,-999.0,98,-99.99,,,0.00,Acu-Link.com,2013-09-15 12:52:00,
2013-09-15 09:08:00,81.3,80.7,29.85,South,180,5.3,-999.0,98,-99.99,,,0.00,Acu-Link.com,2013-09-15 13:08:00,
2013-09-15 09:23:00,82.2,81.6,29.85,SSW,202,6.8,-999.0,98,-99.99,,,0.00,Acu-Link.com,2013-09-15 13:23:00,
2013-09-15 09:38:00,82.9,82.3,29.86,South,180,6.3,-999.0,98,-99.99,,,0.00,Acu-Link.com,2013-09-15 13:38:00,
2013-09-15 09:53:00,83.3,82.7,29.86,SSW,202,7.8,-999.0,98,-99.99,,,0.00,Acu-Link.com,2013-09-15 13:53:00,
2013-09-15 10:08:00,84.2,83.6,29.87,SSW,202,6.3,-999.0,98,-99.99,,,0.00,Acu-Link.com,2013-09-15 14:08:00,
2013-09-15 10:24:00,84.4,83.8,29.87,South,180,8.9,-999.0,98,-99.99,,,0.00,Acu-Link.com,2013-09-15 14:24:00,
2013-09-15 10:39:00,85.5,84.9,29.88,SSW,202,8.9,-999.0,98,-99.99,,,0.00,Acu-Link.com,2013-09-15 14:39:00,
2013-09-15 10:54:00,85.8,85.2,29.87,South,180,5.3,-999.0,98,-99.99,,,0.00,Acu-Link.com,2013-09-15 14:54:00,
2013-09-15 11:09:00,85.1,84.5,29.88,South,180,8.3,-999.0,98,-99.99,,,0.00,Acu-Link.com,2013-09-15 15:09:00,
2013-09-15 11:24:00,86.0,85.4,29.88,South,180,7.8,-999.0,98,-99.99,,,0.00,Acu-Link.com,2013-09-15 15:24:00,
2013-09-15 11:39:00,86.2,85.6,29.88,SSW,202,8.3,-999.0,98,-99.99,,,0.00,Acu-Link.com,2013-09-15 15:39:00,
2013-09-15 11:54:00,87.1,86.5,29.87,South,180,8.3,-999.0,98,-99.99,,,0.00,Acu-Link.com,2013-09-15 15:54:00,
2013-09-15 12:09:00,86.0,85.4,29.87,South,180,6.8,-999.0,98,-99.99,,,0.00,Acu-Link.com,2013-09-15 16:09:00,
2013-09-15 12:24:00,86.7,86.1,29.87,SSW,202,4.2,-999.0,98,-99.99,,,0.00,Acu-Link.com,2013-09-15 16:24:00,
2013-09-15 12:40:00,88.9,88.3,29.86,SSW,202,6.8,-999.0,98,-99.99,,,0.00,Acu-Link.com,2013-09-15 16:40:00,
2013-09-15 12:55:00,88.9,88.3,29.86,SSW,202,5.3,-999.0,98,-99.99,,,0.00,Acu-Link.com,2013-09-15 16:55:00,
2013-09-15 13:10:00,88.7,88.1,29.85,SE,135,7.8,-999.0,98,-99.99,,,0.00,Acu-Link.com,2013-09-15 17:10:00,
2013-09-15 13:25:00,88.9,88.3,29.85,South,180,7.8,-999.0,98,-99.99,,,0.00,Acu-Link.com,2013-09-15 17:25:00,
2013-09-15 13:40:00,90.1,87.4,29.84,South,180,5.3,-999.0,92,-99.99,,,0.00,Acu-Link.com,2013-09-15 17:40:00,
2013-09-15 13:55:00,90.5,88.9,29.83,SSE,157,9.9,-999.0,95,-99.99,,,0.00,Acu-Link.com,2013-09-15 17:55:00,
2013-09-15 14:10:00,90.1,88.8,29.83,SE,135,9.9,-999.0,96,-99.99,,,0.00,Acu-Link.com,2013-09-15 18:10:00,
2013-09-15 14:25:00,75.9,75.3,29.86,SSW,202,20.2,-999.0,98,-99.99,,,0.02,Acu-Link.com,2013-09-15 18:25:00,
2013-09-15 14:40:00,73.9,73.3,29.86,South,180,22.2,-999.0,98,-99.99,,,0.40,Acu-Link.com,2013-09-15 18:40:00,
2013-09-15 14:55:00,73.4,72.8,29.87,SSW,202,11.9,-999.0,98,-99.99,,,0.63,Acu-Link.com,2013-09-15 18:55:00,
2013-09-15 15:11:00,73.4,72.8,29.85,South,180,10.4,-999.0,98,-99.99,,,0.70,Acu-Link.com,2013-09-15 19:11:00,
2013-09-15 15:26:00,73.0,72.4,29.85,WSW,247,3.7,-999.0,98,-99.99,,,0.75,Acu-Link.com,2013-09-15 19:26:00,
2013-09-15 15:41:00,73.4,72.8,29.85,West,270,0.0,-999.0,98,-99.99,,,0.76,Acu-Link.com,2013-09-15 19:41:00,
2013-09-15 15:56:00,73.6,73.0,29.83,NNW,337,0.0,-999.0,98,-99.99,,,0.76,Acu-Link.com,2013-09-15 19:56:00,
2013-09-15 16:11:00,73.4,72.8,29.85,NW,315,0.0,-999.0,98,-99.99,,,0.76,Acu-Link.com,2013-09-15 20:11:00,
2013-09-15 16:26:00,73.8,73.2,29.88,West,270,3.7,-999.0,98,-99.99,,,0.76,Acu-Link.com,2013-09-15 20:26:00,
2013-09-15 16:42:00,73.0,72.4,29.88,NNW,337,3.2,-999.0,98,-99.99,,,0.76,Acu-Link.com,2013-09-15 20:42:00,
2013-09-15 16:57:00,72.5,71.9,29.87,SW,225,3.7,-999.0,98,-99.99,,,0.76,Acu-Link.com,2013-09-15 20:57:00,
2013-09-15 17:12:00,72.1,71.5,29.85,South,180,1.1,-999.0,98,-99.99,,,0.76,Acu-Link.com,2013-09-15 21:12:00,
2013-09-15 17:27:00,72.5,71.9,29.86,South,180,2.7,-999.0,98,-99.99,,,0.76,Acu-Link.com,2013-09-15 21:27:00,
2013-09-15 17:43:00,72.5,71.9,29.86,SE,135,3.7,-999.0,98,-99.99,,,0.76,Acu-Link.com,2013-09-15 21:43:00,
2013-09-15 17:58:00,72.9,72.3,29.85,South,180,3.7,-999.0,98,-99.99,,,0.76,Acu-Link.com,2013-09-15 21:58:00,
2013-09-15 18:13:00,73.0,72.4,29.85,SW,225,4.2,-999.0,98,-99.99,,,0.76,Acu-Link.com,2013-09-15 22:13:00,
2013-09-15 18:28:00,73.6,73.0,29.87,ESE,112,6.3,-999.0,98,-99.99,,,0.76,Acu-Link.com,2013-09-15 22:28:00,
2013-09-15 18:43:00,73.6,73.0,29.87,ESE,112,2.7,-999.0,98,-99.99,,,0.76,Acu-Link.com,2013-09-15 22:43:00,
2013-09-15 18:59:00,73.6,73.0,29.85,ESE,112,5.8,-999.0,98,-99.99,,,0.77,Acu-Link.com,2013-09-15 22:59:00,
2013-09-15 19:14:00,73.4,72.8,29.84,ENE,67,0.0,-999.0,98,-99.99,,,0.78,Acu-Link.com,2013-09-15 23:14:00,
2013-09-15 19:29:00,73.9,73.3,29.86,ESE,112,5.3,-999.0,98,-99.99,,,0.78,Acu-Link.com,2013-09-15 23:29:00,
2013-09-15 19:44:00,74.1,73.5,29.87,SW,225,1.7,-999.0,98,-99.99,,,0.78,Acu-Link.com,2013-09-15 23:44:00,
2013-09-15 19:59:00,74.1,73.5,29.88,WNW,292,0.0,-999.0,98,-99.99,,,0.78,Acu-Link.com,2013-09-15 23:59:00,
2013-09-15 20:15:00,74.3,73.7,29.87,WNW,292,0.0,-999.0,98,-99.99,,,0.79,Acu-Link.com,2013-09-16 00:15:00,
2013-09-15 20:30:00,74.7,74.1,29.88,WNW,292,0.0,-999.0,98,-99.99,,,0.79,Acu-Link.com,2013-09-16 00:30:00,
2013-09-15 20:45:00,75.2,74.6,29.89,SW,225,0.0,-999.0,98,-99.99,,,0.79,Acu-Link.com,2013-09-16 00:45:00,
2013-09-15 21:00:00,75.0,74.4,29.90,South,180,0.0,-999.0,98,-99.99,,,0.79,Acu-Link.com,2013-09-16 01:00:00,
2013-09-15 21:15:00,75.0,74.4,29.92,NE,45,0.0,-999.0,98,-99.99,,,0.79,Acu-Link.com,2013-09-16 01:15:00,
2013-09-15 21:31:00,75.0,74.4,29.92,NW,315,0.0,-999.0,98,-99.99,,,0.79,Acu-Link.com,2013-09-16 01:31:00,
2013-09-15 21:46:00,75.2,74.6,29.91,SSE,157,0.0,-999.0,98,-99.99,,,0.79,Acu-Link.com,2013-09-16 01:46:00,
2013-09-15 22:01:00,75.0,74.4,29.91,South,180,2.7,-999.0,98,-99.99,,,0.79,Acu-Link.com,2013-09-16 02:01:00,
2013-09-15 22:17:00,75.0,74.4,29.90,NE,45,0.0,-999.0,98,-99.99,,,0.79,Acu-Link.com,2013-09-16 02:17:00,
2013-09-15 22:32:00,75.0,74.4,29.89,SE,135,4.2,-999.0,98,-99.99,,,0.79,Acu-Link.com,2013-09-16 02:32:00,
2013-09-15 22:47:00,75.2,74.6,29.89,SE,135,0.0,-999.0,98,-99.99,,,0.79,Acu-Link.com,2013-09-16 02:47:00,
2013-09-15 23:02:00,74.8,74.2,29.88,NE,45,0.0,-999.0,98,-99.99,,,0.79,Acu-Link.com,2013-09-16 03:02:00,
2013-09-15 23:18:00,74.5,73.9,29.88,NNW,337,0.0,-999.0,98,-99.99,,,0.79,Acu-Link.com,2013-09-16 03:18:00,
2013-09-15 23:33:00,74.5,73.9,29.88,North,0,0.0,-999.0,98,-99.99,,,0.79,Acu-Link.com,2013-09-16 03:33:00,
2013-09-15 23:48:00,74.5,73.9,29.87,ESE,112,0.0,-999.0,98,-99.99,,,0.79,Acu-Link.com,2013-09-16 03:48:00,